TimePST,TemperatureF,Dew PointF,Humidity,Sea Level PressureIn,VisibilityMPH,Wind Direction,Wind SpeedMPH,Gust SpeedMPH,PrecipitationIn,Events,Conditions,WindDirDegrees,DateUTC
12:53 AM,62.1,46.0,56,29.82,10.0,WNW,12.7,-,0.00,Rain,Light Rain,300,2012-12-13 08:53:00
1:53 AM,62.1,45.0,53,29.83,10.0,NW,15.0,-,0.00,Rain,Light Rain,310,2012-12-13 09:53:00
2:53 AM,62.1,46.0,56,29.81,10.0,NW,15.0,-,0.00,Rain,Light Rain,310,2012-12-13 10:53:00
3:53 AM,62.1,45.0,53,29.80,10.0,WNW,15.0,-,0.00,Rain,Light Rain,300,2012-12-13 11:53:00
4:53 AM,64.0,46.0,52,29.80,10.0,NW,15.0,-,0.00,Rain,Light Rain,310,2012-12-13 12:53:00
5:53 AM,55.9,44.1,64,29.80,7.0,WNW,13.8,-,0.00,,Scattered Clouds,290,2012-12-13 13:53:00
6:53 AM,55.9,43.0,62,29.81,7.0,WNW,16.1,-,N/A,,Scattered Clouds,290,2012-12-13 14:53:00
7:53 AM,57.6,44.1,61,29.81,7.0,WNW,13.8,-,N/A,,Partly Cloudy,300,2012-12-13 15:53:00
8:53 AM,59.7,43.0,54,29.81,7.0,WNW,18.4,-,N/A,,Scattered Clouds,290,2012-12-13 16:53:00
9:53 AM,64.9,45.0,48,29.83,10.0,WNW,18.4,-,N/A,,Clear,300,2012-12-13 17:53:00
10:13 AM,66.2,42.8,43,29.84,7.0,West,19.6,25.3,N/A,,Scattered Clouds,280,2012-12-13 18:13:00
10:53 AM,66.9,43.0,42,29.83,7.0,West,15.0,23.0,N/A,,Scattered Clouds,280,2012-12-13 18:53:00
11:53 AM,65.1,51.1,60,29.80,7.0,West,21.9,27.6,N/A,,Scattered Clouds,280,2012-12-13 19:53:00
12:53 PM,64.8,50.0,59,29.78,7.0,West,19.6,27.6,N/A,,Scattered Clouds,280,2012-12-13 20:53:00
1:53 PM,63.3,52.2,67,29.76,7.0,WNW,19.6,28.8,N/A,,Scattered Clouds,290,2012-12-13 21:53:00
2:53 PM,64.0,50.9,62,29.76,7.0,West,23.0,28.8,N/A,,Scattered Clouds,280,2012-12-13 22:53:00
4:53 PM,60.1,41.0,49,29.75,10.0,WNW,19.6,-,N/A,,Partly Cloudy,290,2012-12-14 00:53:00
5:53 PM,61.0,41.0,48,29.76,10.0,WNW,15.0,-,N/A,,Scattered Clouds,290,2012-12-14 01:53:00
6:53 PM,60.1,39.9,47,29.78,10.0,WNW,16.1,25.3,N/A,,Partly Cloudy,290,2012-12-14 02:53:00
7:53 PM,61.0,41.0,48,29.78,10.0,WNW,15.0,-,N/A,,Scattered Clouds,290,2012-12-14 03:53:00
8:53 PM,60.1,39.9,47,29.78,10.0,WNW,17.3,-,N/A,,Partly Cloudy,290,2012-12-14 04:53:00
9:53 PM,59.0,39.0,48,29.78,10.0,WNW,16.1,-,N/A,,Clear,290,2012-12-14 05:53:00
10:53 PM,61.0,39.9,46,29.78,10.0,West,16.1,-,N/A,,Clear,280,2012-12-14 06:53:00
11:53 PM,59.0,39.0,48,29.78,10.0,West,15.0,-,N/A,,Clear,280,2012-12-14 07:53:00